STARLINK-11193, 60195

Orbit data source: Space-Track

STARLINK-11193, 60195 is a payload satellite owned by SpaceX/Seattle (US) in LEO that was launched on Wed, 03 Jul 2024 UTC via an FALCON 9 launch vehicle from the Air Force Eastern Test Range (AFETR). Payload-class satellites include a variety of spacecraft equipped with specific instruments for various scientific and technological missions. These include communications satellites like Starlink; space stations such as the ISS; scientific satellites like the Hubble; Earth observation satellites from companies like Planet Labs, Umbra, and HawkEye 360; GPS; miniature CubeSats for education and research; and military/defense satellites.

Loading next visibility...
Identifier
60195, 2024-124N
Orbit
LEO
Country
Flag of USUS
Related business
Manufacturer
SpaceX/Seattle
Mission
Operational Commercial Communications
Bus & Motor
STARLINK V2MD, Unknown motor
Mass
960 kg wet, ~910 kg dry
Launch date (UTC)
2024-07-03 (2 years ago)
Launch vehicle
FALCON 9
Launch site
Air Force Eastern Test Range (AFETR)
Object type
Payload
Rocket body
Debris
Shape & HBR
Box + 2 Pan, 18.1 m
Radar Cross Section
36.964 m², Large (>1 m²)

Expand to show TLE details & history
Last TLE update: 10 hours ago

TLE from 10 hours ago
0 STARLINK-11193
1 60195U 24124N   26126.94218961 -.00002966  00000-0 -19651-4 0  9992
2 60195  53.1599 234.0608 0000945  74.9839 285.1283 15.69685871105681
Epoch: 2026-05-06T22:36Z
TLE epoch observation values (Epoch: 2026-05-06T22:36:45.182Z)
Latitude
-0.00005°
Longitude
30.07706°
Altitude
360.545 km
Speed
7.694 km/s
True Right ascension
15h 36m 14s
True Declination
0° 00' 00"
Sunlit
Object was in full shadow at epoch
Visualization orbit readout
Latitude
Unknown
Longitude
Unknown
Altitude
Unknown
Speed
Unknown
Apparent Right ascension
Unknown
Apparent Declination
Unknown
Sunlit
N/A
Visualization observer readout
Local Sidereal Time
16:55:17
Azimuth
Unknown
Elevation
Unknown
Doppler factor
Unknown
Orbital elements
Apogee altitude
360.693 km
Perigee altitude
359.42 km
Semi-major axis
6,738.193 km
Eccentricity
0.00009
Inclination
53.1599°
RAAN
234.0608°
Arg. of periapsis
74.9839°
True anomaly
285.11785°
Mean anomaly
285.1283°
Eccentric anomaly
285.12307°
Mean motion
3.92399 °/min
Orbital period
91.74 mins
BSTAR
-0.000019651
Loading maneuver chart data...
Computing Atmospheric mass density...
Loading historical data...
Loading historical data...
Loading historical data...
Loading historical data...
Loading historical data...
Loading historical data...
Loading historical data...

Documentation

Showing up to 5 results
|